Simultaneous Nadir Overpasses (SNOs) Predictions

Prediction of SNOs between AQUA and METOP-B Satellite Orbit:

Table of predicted SNOs for the next 14.0 days since TLE Epoch: 12/1/2017
Index Date (AQUA) Time (AQUA) Lat,Lon (AQUA) SZA (AQUA ) Date (METOP-B) Time (METOP-B) Lat,Lon (METOP-B) SZA (METOP-B ) Distance(km) Time Diff (sec)
1 12/04/2017 13:45:42 -73.79, 147.83 83.98 12/04/2017 13:45:07 -73.81, 147.88 83.96 2.47 35
2 12/04/2017 14:35:10 73.84, -44.64 96.08 12/04/2017 14:35:46 73.85, -44.68 96.10 2.09 36
3 12/07/2017 09:19:57 -73.78,-145.70 83.65 12/07/2017 09:19:30 -73.81,-145.71 83.61 3.48 27
4 12/07/2017 10:09:26 73.88, 21.71 96.47 12/07/2017 10:10:09 73.85, 21.72 96.44 3.37 43
5 12/10/2017 04:04:32 73.04, 114.64 95.88 12/10/2017 04:03:27 73.01, 111.57 95.92 99.56 65
6 12/10/2017 04:54:13 -73.83, -79.37 83.31 12/10/2017 04:53:53 -73.81, -79.30 83.33 2.95 20
7 12/10/2017 05:43:41 73.88, 88.16 96.75 12/10/2017 05:44:31 73.89, 88.23 96.76 2.96 50
8 12/12/2017 23:38:52 73.36,-179.58 96.44 12/12/2017 23:37:43 73.30, 178.62 96.42 57.98 69
9 12/13/2017 00:28:27 -73.83, -12.94 83.08 12/13/2017 00:28:15 -73.81, -12.90 83.10 3.16 12
10 12/13/2017 01:17:55 73.88, 154.59 96.98 12/13/2017 01:18:53 73.88, 154.62 96.98 0.99 58
11 12/15/2017 19:13:12 73.64,-113.71 96.89 12/15/2017 19:12:00 73.59,-114.32 96.86 19.64 72
12 12/15/2017 20:02:41 -73.79, 53.59 82.95 12/15/2017 20:02:38 -73.80, 53.49 82.94 3.16 3




NCC Satellite Simultaneous Nadir Overpasses (SNOs) Prediction Service
